Weather History for KCPW - June, 2014

Change the Weather History Date:

Saturday, June 7, 2014

  Actual Average (KALS) Record (KALS)
Temperature  
Mean Temperature 47 °F 57 °F  
Max Temperature 55 °F 76 °F 88 °F (2004)
Min Temperature 39 °F 38 °F 26 °F (1954)
Degree Days  
Heating Degree Days 18 8  
Month to date heating degree days 60  
Since 1 June heating degree days 60  
Since 1 July heating degree days 8486  
Cooling Degree Days 0 0  
Month to date cooling degree days 0  
Year to date cooling degree days 0  
Since 1 June cooling degree days 0  
Moisture  
Dew Point 19 °F    
Average Humidity 35    
Maximum Humidity 70    
Minimum Humidity 18    
Precipitation  
Precipitation 0.00 in 0.02 in 0.46 in (1938)
Month to date precipitation 0.11  
Year to date precipitation 2.33  
Snow  
Snow 0.00 in 0.00 in 0.00 in (2002)
Month to date snowfall 0.0  
Since 1 June snowfall 0.0  
Since 1 July snowfall 27.6  
Snow Depth -    
Sea Level Pressure  
Sea Level Pressure 30.40 in    
Wind  
Wind Speed 12 mph (NE)    
Max Wind Speed 28 mph    
Max Gust Speed 30 mph    
Visibility 10 miles    
Events Thunderstorm    
T = Trace of Precipitation, MM = Missing Value Source: NWS Daily Summary

Daily Weather History Graph

Daily Weather History Graph

Search for Another Location

Airport or City:

Trip Planner

Search our weather history database for the weather conditions in past years. The results will help you decide how hot, cold, wet, or windy it might be!

Date:

Astronomy

Jun. 07, 2014 Rise Set
Actual Time 5:46 AM MDT 8:26 PM MDT
Civil Twilight 5:15 AM MDT 8:57 PM MDT
Nautical Twilight 4:37 AM MDT 9:35 PM MDT
Astronomical Twilight 3:53 AM MDT 10:18 PM MDT
Moon 2:53 PM MDT (6/7) 2:02 AM MDT (6/7)
Length of Visible Light 15h 41m
Length of Day
14h 40m
Waxing Gibbous, 68% of the Moon is Illuminated
Jun 7
Waxing Gibbous
Jun 12
Full
Jun 19
Last Quarter
Jun 27
New
Jul 5
First Quarter

Hourly Weather History & Observations

Time (MDT) Temp. Windchill Dew Point Humidity Pressure Visibility Wind Dir Wind Speed Gust Speed Precip Events Conditions
12:43 AM 44.6 °F 39.2 °F 17.6 °F 34% 30.39 in 10.0 mi NNE 10.4 mph - N/A   Clear
12:47 AM 44.6 °F 39.7 °F 17.6 °F 34% 30.39 in 10.0 mi NNE 9.2 mph - N/A   Clear
1:19 AM 44.6 °F 40.2 °F 17.6 °F 34% 30.39 in 10.0 mi NE 8.1 mph 16.1 mph N/A   Clear
1:39 AM 44.6 °F 38.4 °F 17.6 °F 34% 30.39 in 10.0 mi NE 12.7 mph - N/A   Clear
1:53 AM 44.6 °F 38.8 °F 17.6 °F 34% 30.39 in 10.0 mi NE 11.5 mph - N/A   Clear
2:56 AM 44.6 °F 38.1 °F 15.8 °F 31% 30.39 in 10.0 mi NE 13.8 mph - N/A   Clear
3:14 AM 42.8 °F 36.2 °F 15.8 °F 34% 30.39 in 10.0 mi ENE 12.7 mph - N/A   Clear
3:38 AM 42.8 °F 36.2 °F 14.0 °F 31% 30.39 in 10.0 mi NE 12.7 mph - N/A   Clear
3:59 AM 42.8 °F 36.2 °F 15.8 °F 34% 30.39 in 10.0 mi NE 12.7 mph - N/A   Clear
4:21 AM 42.8 °F 35.8 °F 15.8 °F 34% 30.39 in 10.0 mi ENE 13.8 mph - N/A   Clear
4:37 AM 42.8 °F 36.2 °F 15.8 °F 34% 30.39 in 10.0 mi NE 12.7 mph - N/A   Clear
5:03 AM 41.0 °F 33.1 °F 15.8 °F 36% 30.39 in 10.0 mi NE 15.0 mph - N/A   Clear
5:12 AM 41.0 °F 34.3 °F 15.8 °F 36% 30.39 in 10.0 mi NE 11.5 mph - N/A   Clear
5:28 AM 41.0 °F 33.9 °F 15.8 °F 36% 30.39 in 10.0 mi NE 12.7 mph - N/A   Clear
6:23 AM 42.8 °F 35.4 °F 15.8 °F 34% 30.40 in 10.0 mi NE 15.0 mph - N/A   Clear
7:12 AM 44.6 °F 39.7 °F 15.8 °F 31% 30.41 in 10.0 mi ENE 9.2 mph - N/A   Clear
8:04 AM 46.4 °F 42.4 °F 17.6 °F 32% 30.42 in 10.0 mi NE 8.1 mph - N/A   Clear
8:23 AM 48.2 °F - 17.6 °F 30% 30.43 in 10.0 mi ENE 8.1 mph - N/A   Clear
8:40 AM 50.0 °F - 15.8 °F 26% 30.43 in 10.0 mi NE 6.9 mph - N/A   Clear
9:03 AM 50.0 °F - 15.8 °F 26% 30.44 in 10.0 mi East 3.5 mph - N/A   Clear
9:20 AM 50.0 °F - 17.6 °F 28% 30.44 in 10.0 mi Calm Calm - N/A   Clear
9:47 AM 51.8 °F - 15.8 °F 24% 30.43 in 10.0 mi South 11.5 mph 17.3 mph N/A   Clear
10:23 AM 51.8 °F - 14.0 °F 22% 30.43 in 10.0 mi SSW 6.9 mph 17.3 mph N/A   Clear
10:56 AM 53.6 °F - 14.0 °F 21% 30.43 in 10.0 mi SW 10.4 mph 19.6 mph N/A   Clear
11:24 AM 53.6 °F - 14.0 °F 21% 30.43 in 10.0 mi SSW 11.5 mph 20.7 mph N/A   Scattered Clouds
11:42 AM 51.8 °F - 14.0 °F 22% 30.43 in 10.0 mi SSW 8.1 mph 23.0 mph N/A   Scattered Clouds
12:03 PM 53.6 °F - 14.0 °F 21% 30.42 in 10.0 mi SSW 15.0 mph 23.0 mph N/A   Clear
12:22 PM 53.6 °F - 15.8 °F 22% 30.42 in 10.0 mi SW 18.4 mph 25.3 mph N/A   Clear
12:42 PM 53.6 °F - 14.0 °F 21% 30.41 in 10.0 mi SSW 15.0 mph 25.3 mph N/A   Scattered Clouds
12:58 PM 53.6 °F - 14.0 °F 21% 30.41 in 10.0 mi SW 16.1 mph 29.9 mph N/A   Scattered Clouds
1:22 PM 53.6 °F - 14.0 °F 21% 30.40 in 10.0 mi SW 18.4 mph 28.8 mph N/A   Mostly Cloudy
1:44 PM 51.8 °F - 15.8 °F 24% 30.41 in 10.0 mi WSW 10.4 mph 21.9 mph N/A   Overcast
2:04 PM 50.0 °F - 15.8 °F 26% 30.41 in 10.0 mi West 10.4 mph 21.9 mph N/A   Overcast
2:23 PM 50.0 °F - 17.6 °F 28% 30.41 in 10.0 mi North 6.9 mph - N/A   Overcast
2:44 PM 51.8 °F - 19.4 °F 28% 30.41 in 10.0 mi NE 6.9 mph - N/A   Overcast
2:58 PM 51.8 °F - 19.4 °F 28% 30.40 in 10.0 mi Calm Calm - N/A   Scattered Clouds
3:24 PM 53.6 °F - 14.0 °F 21% 30.39 in 10.0 mi West 13.8 mph 18.4 mph N/A   Scattered Clouds
3:44 PM 55.4 °F - 14.0 °F 20% 30.38 in 10.0 mi SW 16.1 mph 29.9 mph N/A   Scattered Clouds
4:00 PM 55.4 °F - 12.2 °F 18% 30.38 in 10.0 mi SW 12.7 mph 29.9 mph N/A   Scattered Clouds
4:11 PM 53.6 °F - 12.2 °F 19% 30.38 in 10.0 mi SW 23.0 mph 28.8 mph N/A   Scattered Clouds
4:44 PM 55.4 °F - 14.0 °F 20% 30.37 in 10.0 mi West 15.0 mph 24.2 mph N/A Thunderstorm Scattered Clouds
5:04 PM 53.6 °F - 17.6 °F 24% 30.37 in 10.0 mi SSW 15.0 mph 27.6 mph N/A   Clear
5:24 PM 51.8 °F - 21.2 °F 30% 30.38 in 10.0 mi South 11.5 mph 25.3 mph N/A   Mostly Cloudy
5:43 PM 51.8 °F - 19.4 °F 28% 30.37 in 10.0 mi SSW 12.7 mph 18.4 mph N/A   Overcast
6:02 PM 53.6 °F - 17.6 °F 24% 30.36 in 10.0 mi SSW 8.1 mph 18.4 mph N/A   Mostly Cloudy
6:24 PM 51.8 °F - 17.6 °F 26% 30.36 in 10.0 mi SW 11.5 mph 19.6 mph N/A   Mostly Cloudy
6:35 PM 51.8 °F - 17.6 °F 26% 30.36 in 10.0 mi SW 15.0 mph 18.4 mph N/A   Mostly Cloudy
7:04 PM 50.0 °F - 26.6 °F 40% 30.38 in 10.0 mi WSW 13.8 mph 26.5 mph N/A Thunderstorm Mostly Cloudy
7:20 PM 50.0 °F - 26.6 °F 40% 30.38 in 10.0 mi SW 11.5 mph 20.7 mph N/A   Mostly Cloudy
7:30 PM 50.0 °F - 26.6 °F 40% 30.39 in 10.0 mi WSW 8.1 mph 18.4 mph N/A   Scattered Clouds
8:04 PM 46.4 °F 42.9 °F 26.6 °F 46% 30.39 in 10.0 mi North 6.9 mph - N/A   Scattered Clouds
8:24 PM 46.4 °F 41.9 °F 26.6 °F 46% 30.39 in 10.0 mi NE 9.2 mph - N/A   Mostly Cloudy
8:41 PM 44.6 °F 37.4 °F 28.4 °F 53% 30.40 in 10.0 mi NE 16.1 mph - N/A   Overcast
9:03 PM 44.6 °F 36.1 °F 28.4 °F 53% 30.39 in 10.0 mi NE 21.9 mph 27.6 mph N/A   Overcast
9:23 PM 42.8 °F 34.3 °F 30.2 °F 61% 30.39 in 10.0 mi NNE 19.6 mph 29.9 mph N/A   Overcast
9:43 PM 41.0 °F 33.9 °F 32.0 °F 70% 30.42 in 10.0 mi NNE 12.7 mph - N/A Thunderstorm Overcast
10:04 PM 41.0 °F 31.6 °F 30.2 °F 65% 30.41 in 10.0 mi NE 20.7 mph 27.6 mph N/A Thunderstorm Thunderstorm
10:23 PM 41.0 °F 30.5 °F 30.2 °F 65% 30.42 in 10.0 mi NE 26.5 mph - N/A Thunderstorm Mostly Cloudy
10:44 PM 41.0 °F 30.9 °F 30.2 °F 65% 30.42 in 10.0 mi NE 24.2 mph - N/A   Overcast
11:00 PM 39.2 °F 27.8 °F 30.2 °F 70% 30.42 in 10.0 mi NE 27.6 mph - N/A   Scattered Clouds
11:18 PM 39.2 °F 29.0 °F 30.2 °F 70% 30.42 in 10.0 mi NE 21.9 mph - N/A   Scattered Clouds
11:39 PM 39.2 °F 30.2 °F 30.2 °F 70% 30.42 in 10.0 mi ENE 17.3 mph - N/A   Mostly Cloudy